STARLINK-5153 (54088 NORAD) Tracking and Keplerian Element Data

This shows tracking and keplerian element data for the satellite.

Feedback or suggestion? Click here.




ElementValue
Catalog54088
NameSTARLINK-5153
Epoch Orbit549
Epoch Day325.33334491
Epoch Year2022
RAAN350.8933
Inclination53.2151
Eccentricity0.0004089
Argument of Perigee9.5748
Mean Anonmoly336.4534
Mean Motion15.73178175
Decay Rate0.00030675
L11 54088U 22136AP 22325.33334491 .00030675 00000+0 22232-3 0 9997
L22 54088 53.2151 350.8933 0004089 9.5748 336.4534 15.73178175 5490



Live tracking and technical data element details for STARLINK-5153 (NORAD 54088). STARLINK-5153 can be tracked NOW for your location showing map with azimuth and elevation plus other details from your city location.







IsCatalogInMostPopularTable: catalog: 54088, numindb: 1
Update: records affected: 1



GetName: 54088 STARLINK-5153

Hit Count: updated at: Mon, 28 Nov 2022 20:48:49 GMT